• în România
  • Lista ţărilor
  • Pe 7 zile
  • Temperatura apei
  • Hartă satelitară
  • Meteo pe hartă
  • Widget-uri
  • user-avatar
    Intrare

    Meteo pe oră la Yevlakh

    Astăzi, 24 Iulie, Luni

    Timp Temperatura Precipitaţii Vânt Presiune Umiditate
    00:00 +31°C° 0,1 mm 2 m/s 756 mmHg 33%
    01:00 +31°C° 0 mm 2 m/s 756 mmHg 35%
    02:00 +30°C° 0 mm 2 m/s 756 mmHg 36%
    03:00 +29°C° 0 mm 1 m/s 756 mmHg 46%
    04:00 +29°C° 0 mm 2 m/s 756 mmHg 46%
    05:00 +30°C° 0 mm 2 m/s 756 mmHg 47%
    06:00 +30°C° 0 mm 2 m/s 756 mmHg 48%
    07:00 +31°C° 0 mm 3 m/s 756 mmHg 45%
    08:00 +34°C° 0 mm 3 m/s 756 mmHg 42%
    09:00 +35°C° 0 mm 4 m/s 756 mmHg 39%
    10:00 +36°C° 0 mm 4 m/s 756 mmHg 36%
    11:00 +37°C° 0 mm 5 m/s 755 mmHg 33%
    12:00 +39°C° 0 mm 5 m/s 755 mmHg 29%
    13:00 +40°C° 0 mm 5 m/s 755 mmHg 29%
    14:00 +40°C° 0 mm 6 m/s 755 mmHg 28%
    15:00 +40°C° 0 mm 6 m/s 754 mmHg 28%
    16:00 +40°C° 0 mm 6 m/s 754 mmHg 29%
    17:00 +39°C° 0 mm 6 m/s 754 mmHg 30%
    18:00 +38°C° 0 mm 7 m/s 754 mmHg 31%
    19:00 +35°C° 0 mm 6 m/s 755 mmHg 35%
    20:00 +33°C° 0 mm 6 m/s 755 mmHg 40%
    21:00 +30°C° 0 mm 5 m/s 755 mmHg 45%
    22:00 +30°C° 0 mm 4 m/s 755 mmHg 48%
    23:00 +29°C° 0 mm 4 m/s 756 mmHg 51%

    Mâine, 25 Iulie, Marţi

    Timp Temperatura Precipitaţii Vânt Presiune Umiditate
    00:00 +28°C° 0 mm 3 m/s 756 mmHg 54%
    01:00 +27°C° 0 mm 3 m/s 756 mmHg 56%
    02:00 +27°C° 0 mm 2 m/s 755 mmHg 57%
    03:00 +26°C° 0 mm 2 m/s 755 mmHg 59%
    04:00 +27°C° 0 mm 2 m/s 755 mmHg 58%
    05:00 +27°C° 0 mm 1 m/s 756 mmHg 57%
    06:00 +27°C° 0 mm 1 m/s 756 mmHg 57%
    07:00 +29°C° 0 mm 1 m/s 755 mmHg 51%
    08:00 +31°C° 0 mm 1 m/s 755 mmHg 46%
    09:00 +32°C° 0 mm 2 m/s 755 mmHg 40%
    10:00 +35°C° 0 mm 2 m/s 754 mmHg 37%
    11:00 +36°C° 0 mm 2 m/s 754 mmHg 33%
    12:00 +37°C° 0 mm 2 m/s 753 mmHg 29%
    13:00 +38°C° 0 mm 2 m/s 753 mmHg 27%
    14:00 +39°C° 0 mm 2 m/s 752 mmHg 26%
    15:00 +39°C° 0 mm 2 m/s 752 mmHg 24%
    16:00 +39°C° 0 mm 2 m/s 752 mmHg 25%
    17:00 +39°C° 0 mm 3 m/s 752 mmHg 25%
    18:00 +39°C° 0 mm 3 m/s 752 mmHg 25%
    19:00 +37°C° 0 mm 3 m/s 753 mmHg 28%
    20:00 +35°C° 0 mm 3 m/s 753 mmHg 31%
    21:00 +33°C° 0 mm 4 m/s 754 mmHg 34%
    22:00 +31°C° 0 mm 3 m/s 754 mmHg 38%
    23:00 +30°C° 0 mm 3 m/s 754 mmHg 42%

    Poimâine, 26 Iulie, Miercuri

    Timp Temperatura Precipitaţii Vânt Presiune Umiditate
    00:00 +30°C° 0 mm 3 m/s 754 mmHg 46%
    01:00 +29°C° 0,1 mm 2 m/s 754 mmHg 47%
    02:00 +28°C° 0,1 mm 2 m/s 754 mmHg 49%
    03:00 +28°C° 0,1 mm 1 m/s 754 mmHg 50%
    04:00 +28°C° 0 mm 1 m/s 754 mmHg 49%
    05:00 +29°C° 0 mm 1 m/s 754 mmHg 48%
    06:00 +29°C° 0 mm 1 m/s 754 mmHg 47%
    07:00 +31°C° 0 mm 2 m/s 754 mmHg 42%
    08:00 +32°C° 0 mm 2 m/s 754 mmHg 37%
    09:00 +35°C° 0 mm 3 m/s 754 mmHg 33%
    10:00 +36°C° 0 mm 2 m/s 754 mmHg 30%
    11:00 +37°C° 0 mm 2 m/s 754 mmHg 28%
    12:00 +39°C° 0 mm 2 m/s 753 mmHg 25%
    13:00 +39°C° 0 mm 2 m/s 753 mmHg 24%
    14:00 +40°C° 0 mm 2 m/s 753 mmHg 23%
    15:00 +41°C° 0 mm 2 m/s 752 mmHg 22%
    16:00 +40°C° 0 mm 2 m/s 753 mmHg 22%
    17:00 +40°C° 0 mm 3 m/s 753 mmHg 22%
    18:00 +40°C° 0 mm 3 m/s 753 mmHg 23%
    19:00 +38°C° 0 mm 3 m/s 754 mmHg 26%
    20:00 +36°C° 0 mm 4 m/s 754 mmHg 29%
    21:00 +34°C° 0 mm 4 m/s 755 mmHg 33%
    22:00 +33°C° 0 mm 4 m/s 755 mmHg 35%
    23:00 +31°C° 0 mm 3 m/s 755 mmHg 38%

    27 Iulie, Joi

    Timp Temperatura Precipitaţii Vânt Presiune Umiditate
    00:00 +30°C° 0 mm 2 m/s 756 mmHg 40%
    01:00 +30°C° 0 mm 2 m/s 756 mmHg 41%
    02:00 +29°C° 0 mm 2 m/s 756 mmHg 42%
    03:00 +29°C° 0 mm 1 m/s 756 mmHg 43%
    04:00 +29°C° 0 mm 1 m/s 756 mmHg 42%
    05:00 +30°C° 0 mm 1 m/s 756 mmHg 42%
    06:00 +30°C° 0 mm 1 m/s 756 mmHg 41%
    07:00 +32°C° 0 mm 2 m/s 756 mmHg 37%
    08:00 +34°C° 0 mm 2 m/s 756 mmHg 33%
    09:00 +36°C° 0 mm 2 m/s 756 mmHg 29%
    10:00 +37°C° 0 mm 2 m/s 755 mmHg 27%
    11:00 +38°C° 0 mm 2 m/s 755 mmHg 25%
    12:00 +40°C° 0 mm 1 m/s 755 mmHg 23%
    13:00 +40°C° 0 mm 1 m/s 754 mmHg 22%
    14:00 +41°C° 0 mm 1 m/s 754 mmHg 21%
    15:00 +42°C° 0 mm 1 m/s 754 mmHg 20%
    16:00 +42°C° 0 mm 1 m/s 754 mmHg 20%
    17:00 +41°C° 0 mm 1 m/s 754 mmHg 20%
    18:00 +41°C° 0 mm 1 m/s 754 mmHg 21%
    19:00 +39°C° 0 mm 2 m/s 755 mmHg 23%
    20:00 +37°C° 0 mm 3 m/s 755 mmHg 25%
    21:00 +35°C° 0 mm 3 m/s 756 mmHg 27%
    22:00 +34°C° 0 mm 3 m/s 756 mmHg 29%
    23:00 +33°C° 0 mm 3 m/s 756 mmHg 31%

    28 Iulie, Vineri

    Timp Temperatura Precipitaţii Vânt Presiune Umiditate
    00:00 +31°C° 0 mm 3 m/s 756 mmHg 32%
    01:00 +31°C° 0 mm 2 m/s 756 mmHg 34%
    02:00 +30°C° 0 mm 2 m/s 756 mmHg 35%
    03:00 +30°C° 0 mm 1 m/s 756 mmHg 36%
    04:00 +30°C° 0 mm 1 m/s 756 mmHg 35%
    05:00 +31°C° 0 mm 1 m/s 756 mmHg 35%
    06:00 +31°C° 0 mm 1 m/s 756 mmHg 35%
    07:00 +33°C° 0 mm 1 m/s 756 mmHg 31%
    08:00 +36°C° 0 mm 2 m/s 756 mmHg 28%
    09:00 +38°C° 0 mm 2 m/s 755 mmHg 24%
    10:00 +39°C° 0 mm 2 m/s 755 mmHg 23%
    11:00 +40°C° 0 mm 2 m/s 755 mmHg 21%
    12:00 +42°C° 0 mm 1 m/s 754 mmHg 19%
    13:00 +43°C° 0 mm 2 m/s 754 mmHg 18%
    14:00 +43°C° 0 mm 2 m/s 753 mmHg 17%
    15:00 +45°C° 0 mm 2 m/s 753 mmHg 16%
    16:00 +45°C° 0 mm 2 m/s 753 mmHg 17%
    17:00 +45°C° 0 mm 2 m/s 753 mmHg 17%
    18:00 +43°C° 0 mm 2 m/s 753 mmHg 17%
    19:00 +41°C° 0 mm 2 m/s 754 mmHg 21%
    20:00 +39°C° 0 mm 3 m/s 754 mmHg 24%
    21:00 +36°C° 0 mm 3 m/s 755 mmHg 27%
    22:00 +35°C° 0 mm 3 m/s 755 mmHg 30%
    23:00 +34°C° 0 mm 3 m/s 755 mmHg 32%

    29 Iulie, Sâmbătă

    Timp Temperatura Precipitaţii Vânt Presiune Umiditate
    00:00 +32°C° 0 mm 2 m/s 755 mmHg 35%
    01:00 +31°C° 0 mm 2 m/s 755 mmHg 36%
    02:00 +31°C° 0 mm 1 m/s 755 mmHg 38%
    03:00 +30°C° 0 mm 1 m/s 756 mmHg 39%
    04:00 +31°C° 0 mm 1 m/s 756 mmHg 37%
    05:00 +31°C° 0 mm 1 m/s 756 mmHg 36%
    06:00 +32°C° 0 mm 2 m/s 756 mmHg 35%
    07:00 +35°C° 0 mm 2 m/s 756 mmHg 30%
    08:00 +37°C° 0 mm 2 m/s 756 mmHg 26%
    09:00 +39°C° 0 mm 3 m/s 756 mmHg 22%
    10:00 +41°C° 0 mm 2 m/s 755 mmHg 20%
    11:00 +42°C° 0 mm 2 m/s 755 mmHg 18%
    12:00 +44°C° 0 mm 1 m/s 754 mmHg 16%
    13:00 +44°C° 0 mm 1 m/s 754 mmHg 15%
    14:00 +45°C° 0 mm 1 m/s 754 mmHg 15%
    15:00 +46°C° 0 mm 1 m/s 754 mmHg 14%
    16:00 +46°C° 0 mm 1 m/s 754 mmHg 15%
    17:00 +45°C° 0 mm 1 m/s 754 mmHg 15%
    18:00 +45°C° 0 mm 1 m/s 754 mmHg 16%
    19:00 +42°C° 0 mm 2 m/s 754 mmHg 19%
    20:00 +40°C° 0 mm 3 m/s 755 mmHg 22%
    21:00 +38°C° 0 mm 4 m/s 755 mmHg 25%
    22:00 +36°C° 0 mm 3 m/s 755 mmHg 28%
    23:00 +35°C° 0 mm 3 m/s 756 mmHg 31%
    Arată mai mult